"Pseudo-MPEC" for P11XHFG

Created 2024 Sep 9 5:22:08 UT using Find_Orb

Click here for an explanation of pseudo-MPECs

 
 Astrometry: 
     P11XHFG* C2024 09 01.31798421 58 54.519+07 32 59.52   ~91AM 22.44wXNEOCPF51
     P11XHFG  C2024 09 01.33008321 58 54.714+07 33 06.76   ~91AM 22.31wXNEOCPF51
     P11XHFG  C2024 09 01.34214121 58 54.910+07 33 13.87   ~91AM 22.36wXNEOCPF51
     P11XHFG  C2024 09 01.35419921 58 55.102+07 33 20.92   ~91AM 22.13wXNEOCPF51
     P11XHFG  C2024 09 01.42063421 58 56.125+07 33 59.28   ~91Jb 21.90GVNEOCPF52
     P11XHFG  C2024 09 01.44548921 58 56.505+07 34 13.41   ~91Jb 22.13GVNEOCPF52
     P11XHFG  C2024 09 01.44631921 58 56.514+07 34 13.86   ~91Jb 22.01GVNEOCPF52
     P11XHFG  C2024 09 01.44797921 58 56.546+07 34 14.93   ~91Jb 22.14GVNEOCPF52

Station data:
(F51) Pan-STARRS 1, Haleakala  (N20.707234 W156.255910)  US/Hawaii.
   Observers J. Bulger, T. Lowe, A. Schultz, M. Willman. Measurers K.
   Chambers, S. Chastel, T. de Boer, L. Denneau, J. Fairlamb, H. Flewelling,
   M. Huber, C.-C. Lin, E. Magnier, Y. Ramanjooloo, R. Wainscoat, R. Weryk.
   1.8-m Ritchey-Chrétien + CCD.
(F52) Pan-STARRS 2, Haleakala  (N20.707382 W156.255910)  US/Hawaii.
   Observers J. Bulger, T. Dukes, T. Lowe, A. Schultz, M. Willman. Measurers
   K. Chambers, S. Chastel, T. de Boer, L. Denneau, J. Fairlamb, H.
   Flewelling, M. Huber, C.-C. Lin, E. Magnier, Y. Ramanjooloo, R. Wainscoat,
   R. Weryk. 1.8-m Ritchey-Chrétien + CCD.

Orbital elements:  P11XHFG
   Perihelion 2024 Oct 20.92883 +/- 41.4 TT = 22:17:31 (JD 2460604.42883)
Epoch 2024 Sep  1.0 TT = JDT 2460554.5   Earth MOID: 0.1495   Ju: 0.1463
M 355.86805324 +/- 11               Sa: 0.7275                   AutoNEOCP
n   0.08275672 +/- 0.136            Peri.  168.34828 +/- 110
a   5.21515463 +/- 5.72             Node   217.37033 +/- 44
e   0.7806150 +/- 0.222             Incl.    5.44158 +/- 2.4
P  11.90970                H 23.14  G  0.15   U 11.4  SR
q 1.14412666 +/- 0.238    Q 9.28618259 +/- 40.4           (J2000 ecliptic)
From 8 observations 2024 Sept. 1 (3.1 hr); mean residual 0".06
Residuals in arcseconds: 
240901 F51  .01+  .14-    240901 F51  .03+  .09+    240901 F52  .07-  .07-    
240901 F51  .04-  .01+    240901 F52  .07+  .04+    240901 F52  .02+  .05+    
240901 F51  .00   .07+    240901 F52  .01-  .05-    

Ephemerides (geocentric):
Date (UTC) HH   RA             Dec           delta  r     elong  mag " sig PA
---- --------  ------------   ------------  ------ ------ -----  --- --------
2024 09 09 05  22 03 40.502   +08 46 11.44  .29427 1.2850 158.1 21.9 2937 115
2024 09 09 06  22 03 42.583   +08 46 33.79  .29404 1.2847 158.1 21.9 2985 115
2024 09 09 07  22 03 44.671   +08 46 56.14  .29381 1.2845 158.1 21.9 3034 115
2024 09 09 08  22 03 46.765   +08 47 18.47  .29357 1.2842 158.1 21.9 3083 115
2024 09 09 09  22 03 48.867   +08 47 40.80  .29334 1.2840 158.1 21.9 3134 115
2024 09 09 10  22 03 50.976   +08 48 03.12  .29310 1.2837 158.1 21.9 3186 115
2024 09 09 11  22 03 53.092   +08 48 25.43  .29287 1.2834 158.0 21.9 3238 115
2024 09 09 12  22 03 55.216   +08 48 47.73  .29264 1.2832 158.0 21.9 3292 115
2024 09 09 13  22 03 57.346   +08 49 10.03  .29240 1.2829 158.0 21.9 3347 115
2024 09 09 14  22 03 59.484   +08 49 32.31  .29217 1.2827 158.0 21.9 3404 115
2024 09 09 15  22 04 01.629   +08 49 54.59  .29194 1.2824 158.0 21.9 3461 115
2024 09 09 16  22 04 03.782   +08 50 16.87  .29170 1.2822 158.0 21.9 3520 115
2024 09 09 17  22 04 05.941   +08 50 39.13  .29147 1.2819 157.9 21.9 3581 115
2024 09 09 18  22 04 08.108   +08 51 01.39  .29124 1.2816 157.9 21.9 3642 115
2024 09 09 19  22 04 10.282   +08 51 23.64  .29101 1.2814 157.9 21.9 3706 115
2024 09 09 20  22 04 12.464   +08 51 45.88  .29077 1.2811 157.9 21.9 3770 115
2024 09 09 21  22 04 14.653   +08 52 08.11  .29054 1.2809 157.9 21.9 3837 116
2024 09 09 22  22 04 16.849   +08 52 30.34  .29031 1.2806 157.9 21.9 3904 116
2024 09 09 23  22 04 19.053   +08 52 52.56  .29008 1.2804 157.8 21.9 3974 116
2024 09 10 00  22 04 21.264   +08 53 14.77  .28985 1.2801 157.8 21.9 4045 116
2024 09 10 01  22 04 23.483   +08 53 36.97  .28961 1.2798 157.8 21.9 4119 116
2024 09 10 02  22 04 25.709   +08 53 59.17  .28938 1.2796 157.8 21.9 4194 116
2024 09 10 03  22 04 27.942   +08 54 21.36  .28915 1.2793 157.8 21.9 4271 116
2024 09 10 04  22 04 30.183   +08 54 43.54  .28892 1.2791 157.8 21.9 4350 116
2024 09 10 05  22 04 32.432   +08 55 05.72  .28869 1.2788 157.8 21.9 4432 116
2024 09 10 06  22 04 34.688   +08 55 27.88  .28846 1.2786 157.7 21.9 4516 116
2024 09 10 07  22 04 36.951   +08 55 50.04  .28823 1.2783 157.7 21.9 4602 116
2024 09 10 08  22 04 39.223   +08 56 12.19  .28800 1.2781 157.7 21.9 4691 116
2024 09 10 09  22 04 41.501   +08 56 34.34  .28777 1.2778 157.7 21.9 4782 116
2024 09 10 10  22 04 43.788   +08 56 56.47  .28754 1.2775 157.7 21.9 4876 116
2024 09 10 11  22 04 46.082   +08 57 18.60  .28731 1.2773 157.7 21.9 4973 116
2024 09 10 12  22 04 48.383   +08 57 40.72  .28708 1.2770 157.6 21.9 5073 116
2024 09 10 13  22 04 50.693   +08 58 02.84  .28685 1.2768 157.6 21.9 5176 116
2024 09 10 14  22 04 53.010   +08 58 24.94  .28663 1.2765 157.6 21.9 5283 116
2024 09 10 15  22 04 55.335   +08 58 47.04  .28640 1.2763 157.6 21.9 5393 116
2024 09 10 16  22 04 57.667   +08 59 09.14  .28617 1.2760 157.6 21.9 5507 116
2024 09 10 17  22 05 00.007   +08 59 31.22  .28594 1.2758 157.6 21.9 5624 116
2024 09 10 18  22 05 02.355   +08 59 53.30  .28571 1.2755 157.5 21.9 5746 116
2024 09 10 19  22 05 04.711   +09 00 15.37  .28548 1.2753 157.5 21.9 5872 116
2024 09 10 20  22 05 07.075   +09 00 37.43  .28526 1.2750 157.5 21.9 6003 116
2024 09 10 21  22 05 09.446   +09 00 59.49  .28503 1.2748 157.5 21.9 6139 116
2024 09 10 22  22 05 11.825   +09 01 21.54  .28480 1.2745 157.5 21.9 6280 116
2024 09 10 23  22 05 14.213   +09 01 43.58  .28457 1.2743 157.5 21.9 6426 116
2024 09 11 00  22 05 16.608   +09 02 05.61  .28435 1.2740 157.5 21.9 6579 116
2024 09 11 01  22 05 19.011   +09 02 27.64  .28412 1.2738 157.4 21.9 6737 116
2024 09 11 02  22 05 21.421   +09 02 49.66  .28389 1.2735 157.4 21.9 6902 116
2024 09 11 03  22 05 23.840   +09 03 11.67  .28367 1.2733 157.4 21.9 7074 116
2024 09 11 04  22 05 26.267   +09 03 33.67  .28344 1.2730 157.4 21.9 7254 116